User: anonymous   Login
Location: Fishcreek Rd Observing Site
(41.1865°N, 81.4271°W)
Time: 14:03:48
(UTC-04:00)
Language:

Iridium 45 - Orbit

View from above orbital plane
View from above orbital plane
View from above satellite
View from above satellite

Ground track
Ground track

The orbit data is extracted from the following two-line orbital elements,

1 25104U 97082A   16126.47428319  .00000061  00000-0  14782-4 0  9995
2 25104  86.3941  97.6995 0002292 119.9762 240.1662 14.34214734961932
Epoch (UTC): 05 May 2016 11:22:58
Eccentricity: 0.0002292
inclination: 86.3941°
perigee height: 776 km
apogee height: 779 km
right ascension of ascending node: 97.6995°
argument of perigee: 119.9762°
revolutions per day: 14.34214734
mean anomaly at epoch: 240.1662°
orbit number at epoch: 96193

The dashed part of the orbit path shows where the satellite is in the earth's shadow,  

DLR